Regional Weather Roundup
Issued by NWS

Home | Current Version | Previous Version | Graphics & Text | Print | Product List | Glossary On
Versions: 1 2 3 4 5 6 7 8 9 10 11 12 13 14 15 16 17 18 19 20 21 22 23 24 25 26 27 28 29 30 31 32 33 34 35 36 37 38 39 40 41 42 43 44 45 46 47 48 49 50
000
ASUS43 KMPX 291910
RWRMN
WEATHER ROUNDUP FOR MINNESOTA
NATIONAL WEATHER SERVICE TWIN CITIES/CHANHASSEN MN
200 PM CDT TUE JUL 29 2014


NOTE: "FAIR" INDICATES FEW OR NO CLOUDS BELOW 12,000 FEET WITH NO
SIGNIFICANT WEATHER AND/OR OBSTRUCTIONS TO VISIBILITY. N/A MEANS
CURRENT SKY AND/OR WEATHER CONDITIONS ARE NOT AVAILABLE.

MNZ060>063-068>070-292000-
   Twin Cities Metro

CITY           SKY/WX    TMP DP  RH WIND       PRES   REMARKS
TWIN CITIES    PTSUNNY   80  54  40 W14       30.09F
ST PAUL        MOSUNNY   78  55  44 VRB7G18   30.09F
CRYSTAL        PTSUNNY   78  55  44 NW9       30.08F
BLAINE         PTSUNNY   75  57  53 NW9       30.09F
LAKEVILLE      MOSUNNY   75  55  50 NW7       30.11S
EDEN PRAIRIE   SUNNY     79  56  45 NW14G21   30.09F
SOUTH ST PAUL  MOSUNNY   78  53  41 NW8       30.09F
LAKE ELMO      FAIR      77  59  53 NW9G20    30.10F
$$
MNZ001>005-007-008-013>017-022>024-027-028-292000-
   Northwest Minnesota

CITY           SKY/WX    TMP DP  RH WIND       PRES   REMARKS
BEMIDJI        PTSUNNY   74  55  50 NW9G20    30.12F
HALLOCK        SUNNY     75  54  46 NW7G16    30.14S
ROSEAU         MOSUNNY   75  59  57 NW6       30.11F
WARROAD        SUNNY     75  57  53 NW8G16    30.11S
THIEF RVR FALL MOSUNNY   73  55  53 W8        30.14F
CROOKSTON      MOSUNNY   73  55  53 NW12G17   30.15F
FOSSTON        MOSUNNY   73  57  56 NW6       30.14F
DETROIT LAKES  MOSUNNY   73  54  49 N7        30.17S
MOORHEAD       SUNNY     75  54  46 NW9       30.15F
PARK RAPIDS    PTSUNNY   74  51  44 NW8G18    30.13F
$$
MNZ006-009>011-018-025>026-292000-
   North Central Minnesota

CITY           SKY/WX    TMP DP  RH WIND       PRES   REMARKS
BAUDETTE       SUNNY     76  56  49 NW13G20   30.10F
FLAG ISLAND    SUNNY     73  54  49 NW13G20   30.08S
INTL FALLS     PTSUNNY   75  56  51 N13       30.05F
WASKISH        MOSUNNY   75  57  53 NW7       30.10F
BIG FORK       SUNNY     75  52  43 W8        30.09F
LONGVILLE      SUNNY     73  55  53 NW8       30.11F
GRAND RAPIDS   PTSUNNY   73  55  53 W14       30.09F
CRANE LAKE     MOSUNNY   70  59  68 N6        30.05S
ORR            PTSUNNY   72  54  53 NW7G18    30.02F
COOK           SUNNY     75  55  50 W14       30.04F
$$
MNZ012-019>021-037-292000-
   Northeast Minnesota

CITY           SKY/WX    TMP DP  RH WIND       PRES   REMARKS
DULUTH         MOSUNNY   76  55  48 NW14G22   30.05F
ELY            MOSUNNY   70  54  56 N10G24    30.04R
HIBBING        SUNNY     77  54  44 NW10G21   30.06F
EVELETH        MOSUNNY   77  54  44 NW12G18   30.05F
DULUTH HARBOR  MOSUNNY   77  59  53 W14       30.02F
TWO HARBORS    MOSUNNY   75  57  53 NW10G17   29.99F
SILVER BAY     MOSUNNY   73  61  64 W9        29.98F
GRAND MARAIS     N/A     54  49  83 W5        29.99F
G MARAIS ARPRT MOSUNNY   64  54  68 NW6       30.02F
$$
MNZ029>031-032-039>041-046>048-054>057-064-292000-
   West Central Minnesota

CITY           SKY/WX    TMP DP  RH WIND       PRES   REMARKS
FERGUS FALLS   SUNNY     73  48  40 NW9       30.15F
WHEATON        SUNNY     72  55  56 W8        30.18F
MORRIS         SUNNY     75  55  50 NW6       30.15F
ALEXANDRIA     MOSUNNY   73  53  49 NW12      30.17F
ELBOW LAKE     FAIR      70  55  58 NW7       30.16F
WADENA         MOSUNNY   73  54  49 W6G17     30.14F
GLENWOOD       MOSUNNY   73  54  49 NW9       30.16F
APPLETON       MOSUNNY   75  54  46 N9        30.16S
BENSON         SUNNY     75  55  50 N9        30.15F
ORTONVILLE     MOSUNNY   75  54  46 N8        30.17S
MADISON        MOSUNNY   75  55  50 NW5       30.17S
WILLMAR        FAIR      75  52  43 NW12      30.16F
$$
MNZ033>034-036-042>043-049>051-058-059-292000-
   Central Minnesota

CITY           SKY/WX    TMP DP  RH WIND       PRES   REMARKS
ST CLOUD       MOSUNNY   77  54  44 NW9       30.11F
SAUK CENTRE    MOCLDY    75  54  47 W8        30.14F
PAYNESVILLE    SUNNY     75  50  41 W5        30.14F
AITKIN         MOSUNNY   77  57  50 NW6       30.09F
PINE RIVER     MOSUNNY   75  55  50 N9        30.14F
BRAINERD       MOSUNNY   75  54  47 NW13      30.11F
STAPLES        MOSUNNY   75  52  43 W13       30.13F
LONG PRAIRIE   FAIR      72  54  53 W10       30.15F
LITTLE FALLS   SUNNY     75  52  43 W9        30.11F
LITCHFIELD     MOSUNNY   77  55  47 W8        30.14F
BUFFALO        MOSUNNY   77  54  45 NW7       30.12F
MAPLE LAKE     MOSUNNY   76  58  53 NW3       30.13F
$$
MNZ037-044-045-052-053-292000-
   East Central Minnesota

CITY           SKY/WX    TMP DP  RH WIND       PRES   REMARKS
PRINCETON      MOSUNNY   79  55  44 NW10      30.10F
MORA           SUNNY     75  54  46 N15       30.10F
CAMBRIDGE      MOSUNNY   79  59  50 W9G20     30.08S
RUSH CITY      PTSUNNY   76  56  49 NW10G16   30.08F
MOOSE LAKE     MOSUNNY   77  55  47 NW10G16   30.06S
HINCKLEY       FAIR      77  55  47 W10       30.08S
CLOQUET        SUNNY     75  50  41 NW14G21   30.06F
MCGREGOR       PTSUNNY   73  55  53 NW10G17   30.09F
$$
MNZ071>073-080-081-089-090-097-098-292000-
   Southwest Minnesota

CITY           SKY/WX    TMP DP  RH WIND       PRES   REMARKS
MONTEVIDEO     MOSUNNY   77  55  47 NE14      30.17F
GRANITE FALLS  MOSUNNY   74  56  52 NW10      30.18S
CANBY          MOSUNNY   76  50  40 N5        30.18F
MARSHALL       SUNNY     73  52  46 N12       30.16F
REDWOOD FALLS  SUNNY     77  53  43 NW10      30.15F
OLIVIA         MOSUNNY   73  54  49 N6        30.15F
PIPESTONE      MOSUNNY   72  52  49 N3        30.20S
WINDOM         MOSUNNY   73  52  46 NW8       30.17F
WORTHINGTON    MOSUNNY   72  52  49 N5        30.20F
JACKSON        MOSUNNY   72  50  46 W3        30.19S
TRACY          MOSUNNY   74  56  54 N9        30.18F
SLAYTON        PTSUNNY   72  51  46 CALM      30.20F
$$
MNZ065>067-074>077-082>085-091>093-292000-
   South Central Minnesota

CITY           SKY/WX    TMP DP  RH WIND       PRES   REMARKS
MANKATO        MOSUNNY   73  52  46 NW13      30.14F
NEW ULM        MOSUNNY   73  54  49 NW12      30.15F
ST JAMES       MOSUNNY   75  54  46 W6        30.16F
FAIRMONT       MOSUNNY   75  52  43 NW8       30.16F
GLENCOE        MOSUNNY   75  50  41 W9G16     30.12F
FARIBAULT      MOSUNNY   81  50  34 W7        30.13S
OWATONNA       MOSUNNY   75  55  50 W8        30.13F
WASECA         MOSUNNY   72  50  46 NW8G16    30.15F
ALBERT LEA     MOSUNNY   73  55  53 W6        30.14S
$$
MNZ078>079-086>088-094>096-292000-
   Southeast Minnesota

CITY           SKY/WX    TMP DP  RH WIND       PRES   REMARKS
ROCHESTER      MOSUNNY   77  58  51 NW12      30.13S
RED WING       MOSUNNY   81  54  39 W8        30.07F
STANTON        MOSUNNY   78  55  45 W10G16    30.10S
DODGE CENTER   MOSUNNY   73  55  53 NW12      30.13S
WINONA         SUNNY     79  54  41 NW10G16   30.07F
AUSTIN         MOSUNNY   75  55  50 NW9       30.13S
PRESTON        MOSUNNY   74  62  66 NW10      30.12F
$$
ABBREVIATIONS USED IN REMARKS
   TC - TEMPERATURES IN CELSIUS
  WCI - WIND CHILL INDEX
   HX - HEAT INDEX
  VSB - VISIBILITY
$$


USA.gov is the U.S. government's official web portal to all federal, state and local government web resources and services.